Location: University of Redlands
(34.0627°N, 117.1632°W)
Time: 00:34:43
(UTC-08:00)

Hubble Space Telescope - Visible Passes

Search period start: 22 February 2018 00:00
Search period end: 04 March 2018 00:00
Orbit: 537 x 541 km, 28.5° (Epoch: 21 February)

Date Brightness Start Highest point End Pass type
(mag) Time Alt. Az. Time Alt. Az. Time Alt. Az.
22 Feb 3.3 03:57:58 17° ESE 03:57:58 17° ESE 03:59:15 10° ESE visible
22 Feb 1.8 05:33:20 13° WSW 05:36:40 37° S 05:40:30 10° ESE visible
23 Feb 3.6 03:48:18 14° ESE 03:48:18 14° ESE 03:49:04 10° ESE visible
23 Feb 1.7 05:23:39 17° WSW 05:26:21 38° S 05:30:12 10° ESE visible
24 Feb 3.9 03:38:36 11° ESE 03:38:36 11° ESE 03:38:50 10° ESE visible
24 Feb 1.7 05:13:57 22° WSW 05:16:02 37° S 05:19:52 10° ESE visible
25 Feb 1.7 05:04:15 26° SW 05:05:43 35° S 05:09:30 10° ESE visible
26 Feb 1.8 04:54:33 30° SSW 04:55:24 33° S 04:59:07 10° SE visible
27 Feb 1.9 04:44:53 30° SSW 04:45:04 30° S 04:48:42 10° SE visible
28 Feb 2.2 04:35:15 26° S 04:35:15 26° S 04:38:13 10° SE visible
01 Mar 2.7 04:25:40 20° SSE 04:25:40 20° SSE 04:27:42 10° SE visible
02 Mar 3.2 04:16:09 14° SSE 04:16:09 14° SSE 04:17:05 10° SSE visible
